Lid_Strength_Index
8 9 9 9 9 9 10 9 9 10 10 11 11 11 12 12 12 12 13 13 13 13 13 13 13 13 13 13 13 13 14 14 16 14 13 12 12 13 13 12 12 13 12
8 8 8 9 9 9 9 9 9 10 10 11 11 12 12 12 12 13 13 13 14 14 13 13 14 13 14 13 14 14 14 14 15 16 14 14 13 13 13 14 14 13 13
8 8 9 9 9 9 9 9 9 10 10 10 11 12 12 12 13 13 13 13 13 14 13 14 14 14 14 14 15 15 14 14 14 15 15 13 14 14 14 14 14 14 13
9 9 9 9 9 9 9 9 9 9 10 11 11 12 12 13 13 13 13 13 13 13 13 13 14 14 15 15 15 15 14 15 14 15 15 15 15 14 15 16 17 15 16
9 9 9 9 9 9 9 9 9 10 10 10 11 12 13 13 13 13 13 13 14 14 13 13 14 14 14 14 15 15 15 15 15 15 16 16 16 17 17 16 17 17 17
10 10 10 10 10 10 10 10 10 10 10 11 11 12 13 13 12 12 13 13 13 13 14 13 14 14 14 13 13 13 13 14 15 15 16 17 17 16 16 17 18 19 21
10 10 10 10 10 10 10 10 11 11 11 11 12 12 13 12 11 12 12 13 13 14 14 14 14 14 14 14 14 13 13 12 12 14 16 16 17 15 16 18 18 19 20
11 10 10 11 11 11 11 11 11 11 11 11 11 12 12 12 11 11 12 13 14 14 14 15 15 15 14 15 15 15 14 12 13 13 14 15 14 14 15 16 18 19 19
12 12 12 12 13 12 12 12 11 11 10 11 11 12 13 13 11 11 12 14 14 14 14 14 15 15 14 13 14 15 14 13 12 12 12 11 11 12 14 16 19 21 22
16 15 15 14 14 14 13 13 12 11 11 11 11 11 13 13 12 12 12 13 15 14 14 14 12 14 13 12 13 14 14 14 14 14 14 15 15 15 14 16 17 21 22
17 17 16 15 15 15 14 13 13 13 12 12 12 12 13 15 15 12 11 13 14 14 14 13 12 11 10 10 10 11 12 12 13 15 16 17 16 16 16 16 16 18 21
19 19 18 17 16 15 15 15 14 14 14 14 14 13 13 14 15 14 12 11 12 14 14 12 12 10 10 9 9 9 10 11 15 17 18 18 17 17 16 16 17 17 16
21 21 19 18 17 16 16 16 15 14 13 14 13 13 13 12 13 12 11 11 10 12 12 11 10 10 9 9 9 10 11 14 16 18 18 18 17 16 17 17 16 16 16
22 21 19 18 17 16 15 15 14 14 14 14 14 13 13 12 12 12 12 13 12 11 11 11 11 10 9 9 11 11 12 13 15 16 18 16 15 16 17 16 17 17 19
22 21 19 18 18 17 16 15 15 14 13 14 13 13 13 13 12 10 11 12 11 11 11 11 11 11 11 11 11 11 12 13 14 14 15 16 17 17 17 16 17 18 20
23 21 21 20 19 18 17 16 14 12 11 10 10 10 10 9 8 8 8 7 7 7 8 10 9 10 11 11 11 12 13 14 13 14 15 16 17 17 18 18 18 19 20
24 23 21 20 19 18 18 18 18 15 13 12 10 10 9 8 7 7 6 6 5 5 7 8 8 9 10 10 11 12 14 13 15 15 16 16 17 17 19 19 19 19 20
24 22 21 20 20 19 19 19 19 19 19 17 13 12 10 9 8 7 7 6 9 8 8 9 10 9 10 11 12 13 14 14 15 15 16 17 17 19 19 20 20 21 21
23 22 21 21 20 20 19 19 18 18 18 17 16 14 12 11 10 9 9 11 11 10 9 9 9 10 12 13 13 14 15 16 16 17 18 19 18 18 19 20 20 21 21
22 21 21 21 20 19 18 18 18 18 18 18 17 17 15 15 16 15 14 14 14 13 12 12 12 12 13 14 14 15 15 16 17 17 17 17 18 19 20 21 21 22 23
21 20 20 19 18 18 18 19 18 18 19 18 18 17 13 15 15 15 14 14 14 14 13 13 13 13 14 14 15 15 16 16 17 17 18 18 19 20 21 21 22 22 23
21 20 19 19 19 19 19 18 19 19 19 18 18 17 13 16 17 16 16 14 13 12 12 13 13 14 14 15 14 15 15 16 17 18 18 20 21 20 22 22 22 23 23
20 20 20 19 18 18 18 18 18 18 18 18 18 18 17 17 16 16 15 15 14 13 12 13 14 15 15 15 15 15 16 17 17 20 21 21 21 22 22 23 24 23 23
20 19 19 19 18 18 18 18 17 17 17 17 17 17 17 17 16 16 15 15 14 14 13 14 15 16 16 16 15 15 16 17 19 21 23 22 23 23 23 23 24 24 23
19 19 18 18 18 18 18 17 17 17 17 17 17 17 17 16 16 16 15 15 15 15 15 15 15 16 17 17 17 17 17 17 20 21 22 23 23 23 24 24 23 23 22
18 17 17 17 18 18 18 18 18 18 18 18 17 16 16 16 16 16 15 15 15 15 15 16 16 16 17 17 17 17 18 17 19 21 23 22 22 22 21 22 22 22 22